Charlottesville, VA

12:23 AM EST on January 20, 2018 (GMT -0500)
Charlottesville-Albemarle

Weather History for KCHO - August, 2012

Change the Weather History Date:

Saturday, August 11, 2012

  Actual Average Record
Temperature  
Mean Temperature 76 °F 75 °F  
Max Temperature 84 °F 85 °F 102 °F (1926)
Min Temperature 68 °F 64 °F 54 °F (2008)
Degree Days  
Heating Degree Days 0 0  
Month to date heating degree days 0 0  
Since 1 June heating degree days 0 12  
Since 1 July heating degree days 0 1  
Cooling Degree Days 11 10  
Month to date cooling degree days 154 110  
Year to date cooling degree days 1269 740  
Since 1 June cooling degree days 999 654  
Growing Degree Days 26 (Base 50)    
Moisture  
Dew Point 66 °F    
Average Humidity 72    
Maximum Humidity 97    
Minimum Humidity 47    
Precipitation  
Precipitation 0.01 in 0.14 in 0.48 in (2001)
Month to date precipitation 1.86 1.54  
Year to date precipitation 23.54 26.06  
Sea Level Pressure  
Sea Level Pressure 29.85 in    
Wind  
Wind Speed 4 mph (SSW)    
Max Wind Speed 15 mph    
Max Gust Speed 20 mph    
Visibility 6 miles    
Events Fog , Rain , Thunderstorm    
T = Trace of Precipitation, MM = Missing Value Source: NWS Daily Summary

Daily Weather History Graph

Daily Weather History Graph

Search for Another Location

Airport or City:

Trip Planner

Search our weather history database for the weather conditions in past years. The results will help you decide how hot, cold, wet, or windy it might be!

Date:

Astronomy

Aug. 11, 2012 Rise Set
Actual Time 6:25 AM EDT 8:11 PM EDT
Civil Twilight 5:57 AM EDT 8:39 PM EDT
Nautical Twilight 5:22 AM EDT 9:14 PM EDT
Astronomical Twilight 4:46 AM EDT 9:50 PM EDT
Moon 12:54 AM EDT (8/11) 3:42 PM EDT (8/11)
Length of Visible Light 14h 42m
Length of Day
13h 46m
Waning Crescent, 33% of the Moon is Illuminated
Aug 11
Waning Crescent
Aug 17
New
Aug 24
First Quarter
Aug 31
Full
Sep 8
Last Quarter

Hourly Weather History & Observations

Time (EDT) Temp. Heat Index Dew Point Humidity Pressure Visibility Wind Dir Wind Speed Gust Speed Precip Events Conditions
12:08 AM 69.8 °F - 66.2 °F 88% 29.83 in 5.0 mi Calm Calm - 0.01 in Rain , Thunderstorm Light Rain
12:33 AM 69.8 °F - 66.2 °F 88% 29.84 in 6.0 mi SSW 5.8 mph - 0.02 in Rain , Thunderstorm Light Thunderstorms and Rain
12:53 AM 69.1 °F - 66.9 °F 93% 29.81 in 5.0 mi Calm Calm - 0.03 in Rain , Thunderstorm Light Thunderstorms and Rain
1:29 AM 69.8 °F - 66.2 °F 88% 29.82 in 8.0 mi Calm Calm - 0.01 in Rain Light Rain
1:53 AM 69.1 °F - 66.9 °F 93% 29.80 in 8.0 mi Calm Calm - 0.01 in   Partly Cloudy
2:53 AM 69.1 °F - 66.9 °F 93% 29.81 in 8.0 mi South 5.8 mph - N/A   Mostly Cloudy
3:35 AM 69.8 °F - 66.2 °F 88% 29.83 in 6.0 mi Calm Calm - 0.00 in Rain Light Rain
3:53 AM 69.1 °F - 66.9 °F 93% 29.81 in 4.0 mi Calm Calm - 0.00 in Rain Light Rain
4:03 AM 69.8 °F - 66.2 °F 88% 29.83 in 3.0 mi Calm Calm - 0.00 in Rain Light Rain
4:08 AM 69.8 °F - 66.2 °F 88% 29.83 in 2.0 mi Calm Calm - 0.00 in Rain Light Rain
4:10 AM 69.8 °F - 66.2 °F 88% 29.83 in 1.5 mi Calm Calm - 0.00 in Rain Light Rain
4:21 AM 69.8 °F - 66.2 °F 88% 29.84 in 1.0 mi Calm Calm - 0.00 in   Mist
4:33 AM 69.8 °F - 66.2 °F 88% 29.83 in 2.0 mi Calm Calm - 0.01 in   Overcast
4:53 AM 69.1 °F - 66.9 °F 93% 29.82 in 2.0 mi Calm Calm - 0.01 in   Overcast
5:01 AM 69.8 °F - 66.2 °F 88% 29.83 in 1.8 mi Calm Calm - N/A   Overcast
5:08 AM 69.8 °F - 66.2 °F 88% 29.84 in 3.0 mi Calm Calm - N/A   Overcast
5:18 AM 69.8 °F - 66.2 °F 88% 29.83 in 2.0 mi Calm Calm - 0.00 in Rain Light Rain
5:28 AM 69.8 °F - 66.2 °F 88% 29.83 in 2.5 mi Calm Calm - 0.00 in Rain Light Rain
5:36 AM 69.8 °F - 66.2 °F 88% 29.84 in 2.5 mi Calm Calm - 0.00 in   Overcast
5:40 AM 69.8 °F - 66.2 °F 88% 29.84 in 3.0 mi Calm Calm - 0.00 in   Mostly Cloudy
5:53 AM 69.1 °F - 66.9 °F 93% 29.82 in 1.0 mi Calm Calm - 0.00 in   Mostly Cloudy
6:08 AM 68.0 °F - 66.2 °F 94% 29.85 in 0.8 mi South 3.5 mph - N/A   Mist
6:53 AM 69.1 °F - 66.9 °F 93% 29.84 in 0.2 mi Calm Calm - N/A Fog Fog
7:21 AM 69.8 °F - 66.2 °F 88% 29.87 in 1.0 mi SSW 4.6 mph - N/A   Mist
7:42 AM 69.8 °F - 66.2 °F 88% 29.87 in 3.0 mi Calm Calm - N/A   Mostly Cloudy
7:53 AM 69.1 °F - 68.0 °F 96% 29.86 in 3.0 mi SSW 3.5 mph - N/A   Mostly Cloudy
8:10 AM 69.8 °F - 68.0 °F 94% 29.88 in 3.0 mi Calm Calm - N/A   Scattered Clouds
8:53 AM 72.0 °F - 69.1 °F 91% 29.88 in 4.0 mi Calm Calm - N/A   Clear
9:53 AM 73.9 °F - 68.0 °F 82% 29.87 in 10.0 mi Calm Calm - N/A   Scattered Clouds
10:53 AM 77.0 °F - 64.0 °F 64% 29.87 in 10.0 mi Calm Calm - N/A   Partly Cloudy
11:53 AM 79.0 °F - 63.0 °F 58% 29.88 in 10.0 mi SSW 10.4 mph - N/A   Clear
12:53 PM 82.0 °F 83.4 °F 64.0 °F 54% 29.88 in 10.0 mi SSW 10.4 mph - N/A   Clear
1:53 PM 82.9 °F 84.6 °F 64.9 °F 54% 29.86 in 10.0 mi SSW 10.4 mph 18.4 mph N/A   Scattered Clouds
2:53 PM 84.0 °F 85.8 °F 64.9 °F 53% 29.84 in 10.0 mi SSW 9.2 mph - N/A   Scattered Clouds
3:53 PM 82.0 °F 82.7 °F 61.0 °F 49% 29.85 in 10.0 mi SSW 9.2 mph - N/A   Mostly Cloudy
4:53 PM 82.9 °F 84.6 °F 64.9 °F 54% 29.85 in 10.0 mi SSW 9.2 mph - N/A   Scattered Clouds
5:53 PM 82.0 °F 84.1 °F 66.0 °F 58% 29.85 in 10.0 mi South 5.8 mph - N/A   Mostly Cloudy
6:53 PM 81.0 °F 83.0 °F 66.0 °F 60% 29.85 in 10.0 mi SSW 6.9 mph - N/A   Clear
7:53 PM 78.1 °F - 63.0 °F 60% 29.88 in 10.0 mi SSW 3.5 mph - N/A   Clear
8:53 PM 75.9 °F - 64.0 °F 67% 29.89 in 10.0 mi SSW 3.5 mph - N/A   Clear
9:53 PM 73.0 °F - 66.0 °F 79% 29.91 in 10.0 mi South 8.1 mph - N/A   Clear
10:53 PM 73.0 °F - 69.1 °F 87% 29.91 in 10.0 mi SSW 3.5 mph - N/A   Scattered Clouds
11:02 PM 73.4 °F - 69.8 °F 88% 29.93 in 10.0 mi SSW 3.5 mph - N/A   Mostly Cloudy
11:25 PM 73.4 °F - 69.8 °F 88% 29.93 in 10.0 mi Calm Calm - N/A   Scattered Clouds
11:33 PM 71.6 °F - 69.8 °F 94% 29.93 in 10.0 mi WNW 4.6 mph - N/A   Mostly Cloudy
11:53 PM 73.0 °F - 68.0 °F 84% 29.91 in 10.0 mi Calm Calm - N/A   Mostly Cloudy